Location: *
(47.6569°N, 7.4256°E)
Time: 00:16:37
(UTC+00:00)

Cosmos 1943 - Pass Details

Date: 14 December 2019
Orbit: 834 x 849 km, 71.0° (Epoch: 27 January)

Event Time Altitude Azimuth Distance (km) Brightness Sun altitude
Rises 17:49:46 0° 183° (S) 3,381 6.5 -21.0°
Reaches altitude 10° 17:52:19 10° 176° (S) 2,448 5.7 -21.4°
Enters shadow 17:57:12 41° 117° (ESE) 1,201 3.6 -22.2°
